Theta_e
304 303 303 302 303 304 303 304 306 308 310 315 319 320 321 320 321 321 323 326 327 328 327 330 328 328 328 329 328 326 313 316 318 325 323 324 326 324 324 326 324 325 325 325
302 304 302 302 302 304 305 305 305 306 309 311 316 319 320 320 321 322 322 324 326 326 327 327 329 328 328 328 328 324 313 317 322 327 325 325 324 325 324 324 324 325 325 325
303 302 302 303 303 304 304 305 304 305 307 310 314 319 318 317 319 320 323 324 327 325 326 327 327 328 327 327 329 326 317 320 323 325 325 324 325 324 324 324 324 324 325 324
303 303 303 303 303 303 304 304 305 307 309 313 315 319 318 317 318 318 319 325 327 327 326 326 327 327 327 327 329 327 323 321 325 326 327 324 325 325 324 324 324 324 325 324
304 304 305 306 304 304 305 304 304 307 309 309 311 319 317 317 318 318 319 323 327 328 327 326 327 328 327 327 329 328 325 323 325 325 324 324 323 325 324 324 324 324 324 324
305 304 304 305 305 303 305 305 308 307 309 311 310 319 317 320 319 318 317 320 326 329 328 327 327 327 326 328 329 329 327 325 326 326 325 325 325 324 324 324 323 323 324 323
302 306 305 304 307 305 306 307 310 310 309 312 313 317 318 316 319 319 320 321 326 329 327 327 326 327 327 327 328 329 328 327 327 326 325 325 325 326 325 324 324 323 323 320
303 304 308 304 308 307 306 306 311 313 316 317 318 321 318 316 317 319 321 322 328 329 328 327 328 328 328 326 327 329 329 328 328 327 326 326 326 326 325 325 324 324 320 313
301 304 305 303 305 307 308 308 308 314 314 314 317 320 317 315 317 318 319 323 328 329 329 328 328 327 328 327 327 328 328 327 327 328 325 326 325 325 325 326 323 320 309 305
301 304 306 308 302 305 311 310 309 313 318 313 316 319 319 319 315 316 320 326 328 329 328 327 327 327 329 328 327 328 327 326 325 326 326 326 324 326 326 325 320 313 306 303
300 304 305 307 309 313 316 314 316 317 318 317 318 320 315 314 314 315 323 326 328 328 326 327 329 330 329 328 327 327 327 326 326 325 327 326 326 325 324 321 315 311 306 311
299 302 307 307 306 304 308 317 317 316 318 318 318 316 314 316 316 315 325 324 320 321 322 325 327 329 329 326 326 325 326 326 326 326 326 325 324 322 314 312 309 307 312 312
299 303 306 306 309 309 312 312 316 317 315 317 320 320 312 313 315 316 313 312 312 315 317 319 321 324 321 322 323 324 325 322 323 321 322 316 315 313 313 309 311 311 311 310
298 304 303 305 306 307 311 312 316 316 319 318 315 316 311 313 311 310 309 308 307 308 310 312 312 316 314 313 318 315 315 316 314 313 312 312 311 312 311 311 311 311 311 309
297 300 301 301 304 307 310 310 314 314 312 315 313 312 310 310 309 308 306 305 305 305 307 309 309 310 311 313 315 312 313 314 311 313 312 312 311 310 310 311 311 310 308 303
296 299 299 304 307 306 310 306 310 312 311 311 311 311 310 308 308 307 307 306 305 305 305 306 310 308 310 311 312 311 312 312 312 311 311 310 309 310 310 310 309 308 304 302
296 297 299 303 305 306 308 304 308 308 305 309 309 307 306 305 305 306 306 305 304 304 305 306 308 308 309 310 310 311 311 312 311 310 310 310 310 310 309 309 308 305 304 303
296 297 300 302 304 310 305 302 303 305 303 302 306 304 305 303 301 301 305 306 305 306 306 306 307 308 310 310 311 311 310 310 310 310 310 310 310 310 310 309 308 306 305 304
296 297 299 300 303 308 306 302 302 301 307 299 302 303 302 305 306 300 302 304 304 304 305 306 309 309 310 310 310 310 310 310 310 310 309 309 309 309 309 308 305 304 304 304
297 297 298 299 305 307 304 299 299 301 310 298 299 300 302 307 305 299 300 304 304 305 305 305 306 306 308 307 307 307 307 308 308 307 308 308 309 308 307 306 306 305 305 304
289 294 296 299 303 305 297 296 298 307 304 296 297 298 297 297 296 295 302 304 304 304 304 304 304 304 304 305 306 306 307 307 307 307 307 307 307 307 306 306 305 304 304 301
295 298 298 300 302 303 296 297 299 296 294 296 297 296 295 295 296 298 302 304 305 305 305 306 307 308 308 308 307 307 307 305 304 304 303 303 303 302 302 302 301 300 300 300
300 298 298 300 299 296 293 292 292 294 295 295 297 296 296 296 295 296 298 299 299 300 300 301 303 302 301 301 301 300 299 299 298 298 297 297 297 297 297 296 296 295 295 294
296 293 296 296 296 294 293 294 294 295 296 296 296 295 295 294 294 294 295 295 295 295 295 295 295 295 295 294 294 294 294 294 294 293 293 293 293 293 293 293 292 292 292 292
294 292 293 297 296 296 294 292 294 297 295 294 294 294 293 294 293 293 292 292 292 292 293 293 294 293 293 292 293 293 293 292 292 293 293 292 292 292 292 292 292 291 291 290
291 291 295 296 292 293 292 291 292 294 293 293 294 293 292 292 291 291 291 291 292 292 292 293 293 293 292 292 292 293 293 293 293 292 292 292 291 290 290 290 291 290 290 290
Wind_Speed
7 4 9 19 16 18 10 13 14 14 12 14 17 20 18 21 16 19 22 25 31 36 33 36 32 35 27 36 35 33 37 37 35 34 31 28 27 25 23 23 20 18 16 13
2 13 23 12 9 14 16 16 19 18 17 14 18 14 17 13 22 23 23 28 30 33 34 29 35 33 30 38 37 35 38 40 40 35 33 31 28 28 25 23 22 20 16 12
15 19 10 15 14 15 18 19 19 16 15 18 17 14 13 10 17 19 25 28 31 36 39 34 36 39 35 40 40 38 40 41 40 38 36 33 29 28 28 26 23 19 15 13
12 19 20 19 19 18 19 19 19 16 6 8 12 10 14 19 16 14 25 26 31 35 39 40 36 40 40 41 42 39 40 41 40 39 37 35 37 34 30 25 21 19 16 13
15 12 11 17 26 17 17 11 15 14 14 12 21 8 14 13 15 20 18 29 33 36 40 40 42 42 41 44 45 42 41 42 41 37 36 34 34 30 25 26 23 20 17 16
21 32 19 24 12 20 6 14 7 11 7 12 23 13 4 11 17 13 16 32 36 37 40 41 41 40 43 45 45 45 42 44 41 38 38 38 32 31 30 27 28 23 20 20
22 6 4 13 11 16 17 5 4 3 4 13 14 14 15 6 10 18 20 32 37 39 40 42 42 43 42 46 46 46 44 46 43 42 39 37 34 34 28 29 29 28 25 21
7 9 2 2 6 8 21 19 3 6 9 4 6 9 6 8 7 10 12 29 33 39 43 45 44 42 39 45 46 46 44 47 46 43 42 37 34 35 32 33 30 29 24 20
6 7 6 10 9 7 12 12 20 5 3 3 4 3 9 6 5 7 12 30 36 39 41 46 44 42 39 42 43 42 42 43 45 45 41 40 36 36 35 35 32 29 24 23
5 10 5 6 2 8 6 7 3 7 3 3 5 3 6 2 5 8 13 21 33 34 37 42 43 41 34 35 41 41 40 39 39 41 42 40 38 38 37 37 33 29 26 22
16 5 10 11 3 2 5 7 9 4 2 2 3 3 1 5 9 10 14 25 30 29 32 39 35 32 29 34 39 41 40 40 39 39 43 42 41 38 37 32 30 26 24 19
6 7 8 19 12 5 5 2 2 3 3 1 0 3 6 8 9 7 9 18 23 31 35 38 38 35 35 38 37 38 36 38 38 40 42 41 39 38 31 31 27 23 20 12
11 5 9 14 3 4 6 5 4 2 1 3 3 1 10 6 4 14 17 21 25 31 32 31 33 36 36 37 39 38 38 36 36 36 36 29 26 26 20 18 22 16 10 11
16 4 3 6 8 7 8 10 4 1 1 2 3 4 9 8 8 7 17 21 23 25 28 28 27 27 26 24 25 23 24 24 22 18 19 22 24 25 27 21 15 12 11 12
6 5 9 15 12 6 6 12 7 9 4 4 4 3 7 8 9 12 17 22 23 24 23 22 22 22 23 22 20 21 21 21 22 22 27 31 24 20 15 11 10 10 11 9
8 4 10 4 3 13 4 22 14 11 9 4 5 4 11 11 15 17 18 21 20 25 26 28 27 23 25 24 22 21 22 25 27 29 27 23 18 12 8 7 8 9 9 9
6 8 6 6 15 13 8 18 13 7 13 6 8 6 10 15 17 19 18 20 22 24 22 23 22 21 23 26 27 29 30 31 26 23 20 16 10 4 3 5 8 7 9 12
8 10 3 4 10 7 2 9 5 5 16 19 11 12 9 13 23 32 24 24 24 22 23 24 26 27 29 29 29 29 26 22 18 14 10 6 6 8 7 6 8 10 13 15
3 4 4 3 4 3 1 10 8 7 7 19 14 14 10 6 20 28 27 25 25 25 26 26 30 27 28 25 23 22 19 14 9 5 3 7 9 9 9 10 11 14 17 19
4 2 2 4 3 5 4 20 22 3 10 21 23 17 11 8 14 6 26 29 31 31 30 28 25 24 22 19 16 14 10 5 2 6 7 7 6 7 9 12 15 18 20 21
6 4 2 4 2 2 10 27 18 5 5 27 23 20 23 12 10 14 29 31 30 29 27 24 22 21 18 14 10 7 3 2 4 4 5 7 7 9 12 14 16 19 22 22
3 5 4 4 5 6 35 13 8 8 16 14 18 19 24 26 30 34 35 34 31 29 24 21 19 18 15 11 7 7 5 5 5 5 6 7 8 10 11 13 16 18 21 23
3 3 3 5 2 7 18 11 16 12 9 17 18 21 27 32 34 35 36 35 34 32 29 26 23 21 20 17 14 11 12 10 9 9 10 10 11 12 13 15 17 19 21 23
2 6 1 2 3 10 20 22 20 22 25 21 22 24 27 31 30 32 32 31 30 28 27 23 21 21 20 18 16 15 12 10 10 10 11 12 13 15 17 19 21 22 23 25
2 8 4 1 4 6 20 21 18 21 19 20 21 24 25 25 27 28 29 29 28 27 25 23 22 21 20 18 16 15 15 15 14 15 16 16 17 19 18 17 19 19 18 21
3 2 2 1 7 2 7 9 12 15 17 17 18 20 22 24 26 26 28 26 25 23 21 21 21 19 19 18 18 18 18 18 18 17 17 18 17 17 18 19 18 19 19 20
Wind_Direction
205 167 219 226 213 238 259 266 274 267 286 278 247 248 238 225 230 221 220 214 211 214 218 218 223 226 220 211 211 214 205 198 196 191 193 198 196 193 197 198 202 205 211 223
302 229 233 235 222 231 241 248 256 271 271 275 266 256 249 222 227 226 221 215 211 208 212 215 222 223 213 208 210 210 205 200 197 194 197 198 197 197 202 202 207 209 217 230
236 245 225 230 225 223 231 233 246 244 273 282 275 264 244 251 235 229 227 223 210 201 208 209 213 216 208 207 208 208 204 202 201 200 201 201 204 202 204 206 211 214 220 231
241 259 239 238 236 207 240 221 230 243 241 259 207 246 219 232 228 220 224 214 208 200 213 215 216 210 210 209 207 207 206 203 205 204 204 204 208 208 207 211 212 219 223 234
254 243 229 231 232 201 235 196 216 214 228 269 270 227 244 206 226 223 212 209 209 205 208 208 213 216 213 209 205 206 207 207 208 206 209 210 214 214 214 214 215 216 225 229
260 260 226 228 220 208 211 261 238 215 220 247 248 238 224 207 209 215 209 208 205 197 203 212 214 209 209 208 204 207 208 210 209 209 210 212 212 219 214 213 218 218 220 225
314 294 167 198 222 204 202 217 211 150 178 244 227 213 239 231 203 202 203 201 198 191 189 197 198 201 206 208 205 208 210 212 213 213 215 216 218 224 225 227 220 218 217 214
331 320 206 116 212 173 194 194 192 191 188 189 175 198 228 238 196 215 227 197 188 184 187 193 198 199 206 206 205 207 211 215 213 216 218 217 218 219 226 225 225 220 214 202
298 260 213 231 197 189 165 203 227 317 183 116 183 279 303 221 247 228 220 189 188 183 183 189 195 197 204 203 205 207 211 216 216 218 219 218 219 220 223 224 217 214 193 185
277 292 275 318 219 238 248 140 130 225 168 224 191 215 235 140 297 271 203 187 188 180 179 183 189 191 198 202 204 207 211 212 211 213 213 217 219 219 223 221 207 197 183 180
307 257 292 324 29 18 166 171 225 175 263 218 166 207 60 289 283 300 184 179 179 173 169 183 189 194 198 208 207 207 208 210 210 209 210 214 217 217 217 214 202 189 169 175
299 305 324 317 324 258 239 97 209 113 241 305 81 268 351 299 262 237 169 140 139 162 166 177 184 189 195 202 203 200 204 210 211 212 212 213 210 205 197 185 172 169 177 197
333 305 330 337 317 7 14 341 287 189 168 194 183 307 334 11 26 120 115 118 135 155 162 169 178 182 184 187 190 195 202 201 205 205 207 197 189 177 166 151 157 183 187 192
336 281 31 287 284 289 297 310 300 212 48 8 28 325 337 33 48 73 95 107 121 135 152 156 163 166 186 177 175 183 187 189 189 180 168 160 143 134 151 165 170 199 212 217
4 291 338 291 274 314 330 326 33 57 358 37 322 359 338 25 56 65 86 97 105 115 129 133 132 132 140 135 126 150 140 139 143 140 139 134 135 150 165 168 188 221 215 220
349 291 316 277 310 340 344 17 14 51 18 356 331 46 7 61 73 70 77 88 96 109 119 130 127 146 129 130 127 125 126 128 129 132 136 142 153 166 183 197 216 210 233 246
324 325 328 303 331 317 27 355 17 50 27 338 19 355 36 45 44 41 64 79 89 96 109 116 126 122 122 120 121 121 123 124 136 142 146 155 172 229 249 215 205 234 263 266
307 322 294 299 324 42 132 5 2 359 39 17 21 22 50 64 57 46 57 74 81 92 101 108 110 114 118 120 120 122 124 130 138 143 149 177 277 288 273 241 235 258 271 276
274 299 322 357 303 285 67 6 343 353 7 14 1 2 350 350 71 38 62 78 89 97 100 103 104 110 113 117 120 118 120 125 130 147 236 270 267 255 245 240 256 268 275 283
282 252 327 340 352 8 323 329 330 239 35 357 350 6 26 45 65 20 59 85 88 92 95 98 103 105 108 115 113 115 125 145 200 273 282 293 294 283 268 269 275 284 287 287
344 342 6 332 342 330 351 330 323 51 331 331 345 18 51 64 67 75 87 88 91 95 98 106 112 113 112 113 120 128 153 284 306 308 304 298 288 278 279 281 284 287 290 290
314 334 355 330 5 355 357 354 46 315 324 350 34 44 63 76 80 83 88 92 93 95 99 98 99 96 96 99 99 92 65 36 13 354 347 337 321 310 304 301 298 294 294 295
357 22 323 9 10 306 354 348 4 21 23 40 62 77 85 83 80 81 82 83 85 85 85 84 85 89 86 82 77 69 59 44 26 11 358 344 328 316 308 305 303 304 304 304
343 9 321 293 350 340 14 32 48 57 60 67 81 85 86 86 83 82 81 80 81 79 76 74 73 72 71 63 55 50 41 27 12 356 345 338 335 330 325 322 318 317 316 312
299 331 351 329 347 344 19 30 44 67 75 77 79 80 81 82 81 81 79 76 76 76 74 69 64 59 55 47 37 28 18 10 357 349 342 336 331 327 323 323 322 323 325 322
346 353 24 353 316 352 7 20 60 72 72 76 80 80 77 79 80 80 77 72 70 68 61 54 48 43 37 26 19 12 4 357 354 351 349 348 345 341 337 333 329 329 327 325